This is the latest recevied weather packets stored in our database for station/object N5SRF. If no packets are shown the sender has not sent any weather packets the latest 10 day(s).
| Time | Temp. | Humidity | Pressure | Rain* | Wind** | Luminosity | Snow |
|---|---|---|---|---|---|---|---|
| 1788011031 | 28.89° C | 78% | 1022.4 hPa | 0 mm | - | 91 W/m² | - |
| 1788010727 | 28.89° C | 79% | 1022.5 hPa | 0 mm | - | 65 W/m² | - |
| 1788010424 | 27.78° C | 80% | 1022.4 hPa | 0 mm | - | 63 W/m² | - |
| 1788010119 | 27.78° C | 82% | 1022.1 hPa | 0 mm | - | 64 W/m² | - |
| 1788009814 | 26.67° C | 87% | 1022.3 hPa | 0 mm | - | 80 W/m² | - |
| 1788009513 | 26.67° C | 92% | 1022.2 hPa | 0 mm | - | 98 W/m² | - |
| 1788009208 | 26.11° C | 93% | 1022.2 hPa | 0 mm | - | 89 W/m² | - |
| 1788008897 | 25.56° C | 98% | 1022.1 hPa | 0 mm | - | 78 W/m² | - |
| 1788008593 | 25° C | 99% | 1022.2 hPa | 0 mm | - | 67 W/m² | - |
| 1788008291 | 24.44° C | 99% | 1022.1 hPa | 0 mm | - | 61 W/m² | - |
| 1788007988 | 23.89° C | 99% | 1022.1 hPa | 0 mm | - | 55 W/m² | - |
| 1788007687 | 23.89° C | 99% | 1022.1 hPa | 0 mm | - | 49 W/m² | - |
| 1788007382 | 23.33° C | 99% | 1022 hPa | 0 mm | - | 43 W/m² | - |
| 1788007076 | 22.78° C | 99% | 1022 hPa | 0 mm | - | 37 W/m² | - |
| 1788006775 | 22.78° C | 99% | 1022.1 hPa | 0 mm | - | 31 W/m² | - |
| 1788006470 | 22.22° C | 99% | 1021.9 hPa | 0 mm | - | 27 W/m² | - |
| 1788006165 | 21.67° C | 99% | 1022 hPa | 0 mm | - | 21 W/m² | - |
| 1788005864 | 21.67° C | 99% | 1021.7 hPa | 0 mm | - | 17 W/m² | - |
| 1788005559 | 21.11° C | 99% | 1021.9 hPa | 0 mm | - | 12 W/m² | - |
| 1788005257 | 21.11° C | 99% | 1021.7 hPa | 0 mm | - | 9 W/m² | - |
| 1788004956 | 21.11° C | 99% | 1021.7 hPa | 0 mm | - | 6 W/m² | - |
| 1788004655 | 21.11° C | 99% | 1021.6 hPa | 0 mm | - | 3 W/m² | - |
| 1788004350 | 21.11° C | 99% | 1021.7 hPa | 0 mm | - | 2 W/m² | - |
| 1788004045 | 21.11° C | 99% | 1021.4 hPa | 0 mm | - | 1 W/m² | - |
| 1788003743 | 21.11° C | 99% | 1021.5 hPa | 0 mm | - | 0 W/m² | - |
* Rain latest hour (hover to see other rain measurements)
** Current wind speed in m/s (hover to see current wind gust speed)